Hourly Data Report for September 02, 2017

All times are specified in Local Standard Time (LST). Add 1 hour to adjust for Daylight Saving Time where and when it is observed.

DOAKTOWN AUTO RCS
NEW BRUNSWICK

46°35'06.090" N
66°00'35.071" W
43.00 m
8101201
71038
ADN

Download Data

Hourly Data (September 2017)
Hourly Data Report for September 2, 2017
Temp Definition
°C
Dew Point Temp Definition
°C
Rel Hum Definition
%
Wind Dir Definition
10's deg

Wind Spd Definition
km/h
Visibility Definition
km
Stn Press Definition
kPa
Hmdx Definition


Wind Chill Definition


Weather Definition


TIME
00:00 8.4 5.6 83 26 10   100.65     LegendNANA
01:00 6.9 4.9 87 27 6   100.71     LegendNANA
02:00 7.5 5.8 89 26 8   100.78     LegendNANA
03:00 7.4 5.5 88 25 6   100.79     LegendNANA
04:00 6.7 5.0 89 26 6   100.87     LegendNANA
05:00 7.7 5.6 87 29 6   100.93     LegendNANA
06:00 6.8 5.2 89 26 6   101.01     LegendNANA
07:00 8.4 6.2 86 24 5   101.10     LegendNANA
08:00 10.0 5.4 73 28 11   101.17     LegendNANA
09:00 11.2 5.3 67 29 12   101.21     LegendNANA
10:00 12.8 5.2 60 29 13   101.23     LegendNANA
11:00 14.4 5.7 56 31 12   101.23     LegendNANA
12:00 15.6 5.3 50 33 14   101.22     LegendNANA
13:00 16.8 5.4 47 32 10   101.21     LegendNANA
14:00 18.7 6.8 46 29 10   101.24     LegendNANA
15:00 19.4 5.9 41 32 9   101.25     LegendNANA
16:00 20.6 6.2 39 25 6   101.29     LegendNANA
17:00 20.2 7.0 42 29 10   101.31     LegendNANA
18:00 19.4 6.8 44 28 9   101.37     LegendNANA
19:00 14.1 7.6 65 28 3   101.44     LegendNANA
20:00 12.1 7.8 75 24 2   101.52     LegendNANA
21:00 10.1 7.9 86 25 2   101.59     LegendNANA
22:00 9.4 7.8 90 26 4   101.65     LegendNANA
23:00 8.0 6.8 92 27 2   101.65     LegendNANA

Notes on Data Quality.

Legend

  • E = Estimated
  • M = Missing
  • NA = Not Available
  • ‡ = Partner data that is not subject to review by the National Climate Archives
Date modified: